Time,TemperatureF,DewpointF,PressureIn,WindDirection,WindDirectionDegrees,WindSpeedMPH,WindSpeedGustMPH,Humidity,HourlyPrecipIn,Conditions,Clouds,dailyrainin,SoftwareType,DateUTC
2013-02-13 01:01:00,28.0,21.0,-100.00,SW,225,6.0,8.0,77,-99.99,,,0.00,,2013-02-13 08:01:00,
2013-02-13 01:11:00,27.0,21.0,-100.00,SSW,210,8.0,10.0,77,-99.99,,,0.00,,2013-02-13 08:11:00,
2013-02-13 01:21:00,27.0,21.0,-100.00,SSW,210,8.0,10.0,77,-99.99,,,0.00,,2013-02-13 08:21:00,
2013-02-13 01:31:00,28.0,21.0,-100.00,SW,225,6.0,8.0,77,-99.99,,,0.00,,2013-02-13 08:31:00,
2013-02-13 01:43:00,28.0,21.0,-100.00,SW,225,6.0,8.0,77,-99.99,,,0.00,,2013-02-13 08:43:00,
2013-02-13 01:52:00,28.0,21.0,-100.00,SW,225,6.0,8.0,77,-99.99,,,0.00,,2013-02-13 08:52:00,
2013-02-13 02:01:00,28.0,22.0,-100.00,SW,220,11.0,18.0,79,-99.99,,,0.00,,2013-02-13 09:01:00,
2013-02-13 02:11:00,28.0,22.0,-100.00,SW,215,7.0,9.0,78,-99.99,,,0.00,,2013-02-13 09:11:00,
2013-02-13 02:21:00,28.0,22.0,-100.00,SW,215,7.0,9.0,78,-99.99,,,0.00,,2013-02-13 09:21:00,
2013-02-13 02:31:00,28.0,22.0,-100.00,SW,220,11.0,18.0,79,-99.99,,,0.00,,2013-02-13 09:31:00,
2013-02-13 02:41:00,28.0,22.0,-100.00,SW,220,11.0,18.0,79,-99.99,,,0.00,,2013-02-13 09:41:00,
2013-02-13 02:51:00,28.0,22.0,-100.00,SW,220,11.0,18.0,79,-99.99,,,0.00,,2013-02-13 09:51:00,
2013-02-13 03:11:00,29.0,23.0,-100.00,WSW,240,16.0,25.0,79,-99.99,,,0.00,,2013-02-13 10:11:00,
2013-02-13 03:21:00,29.0,23.0,-100.00,WSW,240,16.0,25.0,79,-99.99,,,0.00,,2013-02-13 10:21:00,
2013-02-13 03:31:00,29.0,23.0,-100.00,WSW,240,14.0,21.0,77,-99.99,,,0.00,,2013-02-13 10:31:00,
2013-02-13 03:41:00,29.0,23.0,-100.00,WSW,240,14.0,21.0,77,-99.99,,,0.00,,2013-02-13 10:41:00,
2013-02-13 03:51:00,29.0,23.0,-100.00,WSW,240,14.0,21.0,77,-99.99,,,0.00,,2013-02-13 10:51:00,
2013-02-13 04:01:00,29.0,23.0,-100.00,WSW,240,14.0,21.0,77,-99.99,,,0.00,,2013-02-13 11:01:00,
2013-02-13 04:11:00,29.0,23.0,-100.00,WSW,240,17.0,21.0,77,-99.99,,,0.00,,2013-02-13 11:11:00,
2013-02-13 04:22:00,29.0,23.0,-100.00,WSW,240,17.0,21.0,77,-99.99,,,0.00,,2013-02-13 11:22:00,
2013-02-13 04:32:00,29.0,23.0,-100.00,SW,235,18.0,26.0,77,-99.99,,,0.00,,2013-02-13 11:32:00,
2013-02-13 04:42:00,29.0,23.0,-100.00,SW,235,18.0,26.0,77,-99.99,,,0.00,,2013-02-13 11:42:00,
2013-02-13 04:52:00,29.0,23.0,-100.00,SW,235,18.0,26.0,77,-99.99,,,0.00,,2013-02-13 11:52:00,
2013-02-13 05:01:00,29.0,23.0,-100.00,SW,225,20.0,27.0,77,-99.99,,,0.00,,2013-02-13 12:01:00,
2013-02-13 05:11:00,29.0,23.0,-100.00,WSW,240,22.0,27.0,77,-99.99,,,0.00,,2013-02-13 12:11:00,
2013-02-13 05:21:00,29.0,23.0,-100.00,WSW,240,22.0,27.0,77,-99.99,,,0.00,,2013-02-13 12:21:00,
2013-02-13 05:32:00,29.0,23.0,-100.00,SW,225,20.0,27.0,77,-99.99,,,0.00,,2013-02-13 12:32:00,
2013-02-13 05:42:00,29.0,23.0,-100.00,SW,225,20.0,27.0,77,-99.99,,,0.00,,2013-02-13 12:42:00,
2013-02-13 05:52:00,29.0,23.0,-100.00,SW,225,20.0,27.0,77,-99.99,,,0.00,,2013-02-13 12:52:00,
2013-02-13 06:01:00,30.0,23.0,-100.00,SW,235,19.0,27.0,75,-99.99,,,0.00,,2013-02-13 13:01:00,
2013-02-13 06:11:00,29.0,23.0,-100.00,SW,225,24.0,30.0,77,-99.99,,,0.00,,2013-02-13 13:11:00,
2013-02-13 06:21:00,29.0,23.0,-100.00,SW,225,24.0,30.0,77,-99.99,,,0.00,,2013-02-13 13:21:00,
2013-02-13 06:31:00,30.0,23.0,-100.00,SW,235,19.0,27.0,75,-99.99,,,0.00,,2013-02-13 13:31:00,
2013-02-13 06:41:00,30.0,23.0,-100.00,SW,235,19.0,27.0,75,-99.99,,,0.00,,2013-02-13 13:41:00,
2013-02-13 06:51:00,30.0,23.0,-100.00,SW,235,19.0,27.0,75,-99.99,,,0.00,,2013-02-13 13:51:00,
2013-02-13 07:11:00,29.0,22.0,-100.00,SW,230,19.0,29.0,75,-99.99,,,0.00,,2013-02-13 14:11:00,
2013-02-13 07:21:00,29.0,22.0,-100.00,SW,230,19.0,29.0,75,-99.99,,,0.00,,2013-02-13 14:21:00,
2013-02-13 07:31:00,29.0,23.0,-100.00,SW,235,14.0,21.0,77,-99.99,,,0.00,,2013-02-13 14:31:00,
2013-02-13 07:42:00,29.0,23.0,-100.00,SW,235,14.0,21.0,77,-99.99,,,0.00,,2013-02-13 14:42:00,
2013-02-13 07:52:00,29.0,23.0,-100.00,SW,235,14.0,21.0,77,-99.99,,,0.00,,2013-02-13 14:52:00,
2013-02-13 08:01:00,29.0,23.0,-100.00,SW,235,14.0,21.0,77,-99.99,,,0.00,,2013-02-13 15:01:00,
2013-02-13 08:11:00,28.0,23.0,-100.00,SW,230,13.0,18.0,80,-99.99,,,0.00,,2013-02-13 15:11:00,
2013-02-13 08:21:00,28.0,23.0,-100.00,SW,230,13.0,18.0,80,-99.99,,,0.00,,2013-02-13 15:21:00,
2013-02-13 08:32:00,29.0,23.0,-100.00,WSW,240,11.0,21.0,77,-99.99,,,0.00,,2013-02-13 15:32:00,
2013-02-13 08:42:00,29.0,23.0,-100.00,WSW,240,11.0,21.0,77,-99.99,,,0.00,,2013-02-13 15:42:00,
2013-02-13 08:51:00,29.0,23.0,-100.00,WSW,240,11.0,21.0,77,-99.99,,,0.00,,2013-02-13 15:51:00,
2013-02-13 09:01:00,29.0,22.0,-100.00,WSW,245,1.0,4.0,74,-99.99,,,0.00,,2013-02-13 16:01:00,
2013-02-13 09:11:00,29.0,22.0,-100.00,WNW,295,4.0,7.0,75,-99.99,,,0.00,,2013-02-13 16:11:00,
2013-02-13 09:21:00,29.0,22.0,-100.00,WNW,295,4.0,7.0,75,-99.99,,,0.00,,2013-02-13 16:21:00,
2013-02-13 09:31:00,29.0,22.0,-100.00,WSW,245,1.0,4.0,74,-99.99,,,0.00,,2013-02-13 16:31:00,
2013-02-13 09:41:00,29.0,22.0,-100.00,WSW,245,1.0,4.0,74,-99.99,,,0.00,,2013-02-13 16:41:00,
2013-02-13 09:51:00,29.0,22.0,-100.00,WSW,245,1.0,4.0,74,-99.99,,,0.00,,2013-02-13 16:51:00,
2013-02-13 10:01:00,30.0,21.0,-100.00,South,185,8.0,16.0,69,-99.99,,,0.00,,2013-02-13 17:01:00,
2013-02-13 10:11:00,30.0,21.0,-100.00,SSW,200,4.0,9.0,70,-99.99,,,0.00,,2013-02-13 17:11:00,
2013-02-13 10:21:00,30.0,21.0,-100.00,SSW,200,4.0,9.0,70,-99.99,,,0.00,,2013-02-13 17:21:00,
2013-02-13 10:31:00,30.0,21.0,-100.00,South,185,8.0,16.0,69,-99.99,,,0.00,,2013-02-13 17:31:00,
2013-02-13 10:41:00,30.0,21.0,-100.00,South,185,8.0,16.0,69,-99.99,,,0.00,,2013-02-13 17:41:00,
2013-02-13 10:52:00,30.0,21.0,-100.00,South,185,8.0,16.0,69,-99.99,,,0.00,,2013-02-13 17:52:00,
2013-02-13 11:01:00,31.0,20.0,-100.00,WSW,245,9.0,15.0,63,-99.99,,,0.00,,2013-02-13 18:01:00,
2013-02-13 11:11:00,31.0,20.0,-100.00,SSW,200,6.0,11.0,63,-99.99,,,0.00,,2013-02-13 18:11:00,
2013-02-13 11:22:00,31.0,20.0,-100.00,SSW,200,6.0,11.0,63,-99.99,,,0.00,,2013-02-13 18:22:00,
2013-02-13 11:31:00,31.0,21.0,-100.00,SW,235,7.0,14.0,66,-99.99,,,0.00,,2013-02-13 18:31:00,
2013-02-13 11:32:00,31.0,20.0,-100.00,WSW,245,9.0,15.0,63,-99.99,,,0.00,,2013-02-13 18:32:00,
2013-02-13 11:41:00,31.0,20.0,-100.00,WSW,245,9.0,15.0,63,-99.99,,,0.00,,2013-02-13 18:41:00,
2013-02-13 11:51:00,31.0,20.0,-100.00,WSW,245,9.0,15.0,63,-99.99,,,0.00,,2013-02-13 18:51:00,
2013-02-13 12:11:00,31.0,21.0,-100.00,SW,235,7.0,14.0,66,-99.99,,,0.00,,2013-02-13 19:11:00,
2013-02-13 12:21:00,31.0,21.0,-100.00,SW,235,7.0,14.0,66,-99.99,,,0.00,,2013-02-13 19:21:00,
2013-02-13 13:01:00,31.0,21.0,-100.00,SW,235,9.0,12.0,66,-99.99,,,0.00,,2013-02-13 20:01:00,
2013-02-13 13:11:00,32.0,20.0,-100.00,WNW,300,9.0,13.0,63,-99.99,,,0.00,,2013-02-13 20:11:00,
2013-02-13 13:21:00,32.0,20.0,-100.00,WNW,300,9.0,13.0,63,-99.99,,,0.00,,2013-02-13 20:21:00,
2013-02-13 13:31:00,31.0,21.0,-100.00,SW,235,9.0,12.0,66,-99.99,,,0.00,,2013-02-13 20:31:00,
2013-02-13 13:41:00,31.0,21.0,-100.00,SW,235,9.0,12.0,66,-99.99,,,0.00,,2013-02-13 20:41:00,
2013-02-13 13:52:00,31.0,21.0,-100.00,SW,235,9.0,12.0,66,-99.99,,,0.00,,2013-02-13 20:52:00,
2013-02-13 14:01:00,31.0,22.0,-100.00,NW,305,11.0,13.0,68,-99.99,,,0.00,,2013-02-13 21:01:00,
2013-02-13 14:11:00,31.0,22.0,-100.00,West,260,6.0,11.0,70,-99.99,,,0.00,,2013-02-13 21:11:00,
2013-02-13 14:21:00,31.0,22.0,-100.00,West,260,6.0,11.0,70,-99.99,,,0.00,,2013-02-13 21:21:00,
2013-02-13 14:31:00,31.0,22.0,-100.00,NW,305,11.0,13.0,68,-99.99,,,0.00,,2013-02-13 21:31:00,
2013-02-13 14:42:00,31.0,22.0,-100.00,NW,305,11.0,13.0,68,-99.99,,,0.00,,2013-02-13 21:42:00,
2013-02-13 14:52:00,31.0,22.0,-100.00,NW,305,11.0,13.0,68,-99.99,,,0.00,,2013-02-13 21:52:00,
2013-02-13 15:11:00,31.0,22.0,-100.00,SSW,210,3.0,12.0,69,-99.99,,,0.00,,2013-02-13 22:11:00,
2013-02-13 15:21:00,31.0,22.0,-100.00,SSW,210,3.0,12.0,69,-99.99,,,0.00,,2013-02-13 22:21:00,
2013-02-13 15:31:00,31.0,19.0,-100.00,WSW,240,7.0,14.0,59,-99.99,,,0.00,,2013-02-13 22:31:00,
2013-02-13 15:42:00,31.0,19.0,-100.00,WSW,240,7.0,14.0,59,-99.99,,,0.00,,2013-02-13 22:42:00,
2013-02-13 15:51:00,31.0,19.0,-100.00,WSW,240,7.0,14.0,59,-99.99,,,0.00,,2013-02-13 22:51:00,
2013-02-13 16:00:00,29.0,19.0,-100.00,SW,215,10.0,14.0,64,-99.99,,,0.00,,2013-02-13 23:00:00,
2013-02-13 16:01:00,31.0,19.0,-100.00,WSW,240,7.0,14.0,59,-99.99,,,0.00,,2013-02-13 23:01:00,
2013-02-13 16:11:00,31.0,17.0,-100.00,SSW,205,8.0,12.0,57,-99.99,,,0.00,,2013-02-13 23:11:00,
2013-02-13 16:21:00,31.0,17.0,-100.00,SSW,205,8.0,12.0,57,-99.99,,,0.00,,2013-02-13 23:21:00,
2013-02-13 16:32:00,29.0,19.0,-100.00,SW,215,10.0,14.0,64,-99.99,,,0.00,,2013-02-13 23:32:00,
2013-02-13 16:41:00,29.0,19.0,-100.00,SW,215,10.0,14.0,64,-99.99,,,0.00,,2013-02-13 23:41:00,
2013-02-13 16:52:00,29.0,19.0,-100.00,SW,215,10.0,14.0,64,-99.99,,,0.00,,2013-02-13 23:52:00,
2013-02-13 17:00:00,29.0,19.0,-100.00,SW,225,10.0,12.0,65,-99.99,,,0.00,,2013-02-14 00:00:00,
2013-02-13 17:11:00,29.0,20.0,-100.00,SW,215,8.0,10.0,67,-99.99,,,0.00,,2013-02-14 00:11:00,
2013-02-13 17:21:00,29.0,20.0,-100.00,SW,215,8.0,10.0,67,-99.99,,,0.00,,2013-02-14 00:21:00,
2013-02-13 17:31:00,29.0,19.0,-100.00,SW,225,10.0,12.0,65,-99.99,,,0.00,,2013-02-14 00:31:00,
2013-02-13 17:42:00,29.0,19.0,-100.00,SW,225,10.0,12.0,65,-99.99,,,0.00,,2013-02-14 00:42:00,
2013-02-13 17:51:00,29.0,19.0,-100.00,SW,225,10.0,12.0,65,-99.99,,,0.00,,2013-02-14 00:51:00,
2013-02-13 18:00:00,28.0,17.0,-100.00,SW,225,13.0,19.0,64,-99.99,,,0.00,,2013-02-14 01:00:00,
2013-02-13 18:11:00,28.0,19.0,-100.00,SW,225,9.0,13.0,67,-99.99,,,0.00,,2013-02-14 01:11:00,
2013-02-13 18:21:00,28.0,19.0,-100.00,SW,225,9.0,13.0,67,-99.99,,,0.00,,2013-02-14 01:21:00,
2013-02-13 18:51:00,28.0,17.0,-100.00,SW,225,13.0,19.0,64,-99.99,,,0.00,,2013-02-14 01:51:00,
2013-02-13 19:01:00,27.0,16.0,-100.00,West,275,8.0,10.0,62,-99.99,,,0.00,,2013-02-14 02:01:00,
2013-02-13 19:11:00,27.0,17.0,-100.00,WSW,250,9.0,13.0,66,-99.99,,,0.00,,2013-02-14 02:11:00,
2013-02-13 19:21:00,27.0,17.0,-100.00,WSW,250,9.0,13.0,66,-99.99,,,0.00,,2013-02-14 02:21:00,
2013-02-13 19:31:00,27.0,16.0,-100.00,West,275,8.0,10.0,62,-99.99,,,0.00,,2013-02-14 02:31:00,
2013-02-13 19:41:00,27.0,16.0,-100.00,West,275,8.0,10.0,62,-99.99,,,0.00,,2013-02-14 02:41:00,
2013-02-13 19:51:00,27.0,16.0,-100.00,West,275,8.0,10.0,62,-99.99,,,0.00,,2013-02-14 02:51:00,
2013-02-13 20:01:00,26.0,15.0,-100.00,WSW,250,15.0,20.0,62,-99.99,,,0.00,,2013-02-14 03:01:00,
2013-02-13 20:11:00,27.0,16.0,-100.00,WSW,245,14.0,16.0,63,-99.99,,,0.00,,2013-02-14 03:11:00,
2013-02-13 20:21:00,27.0,16.0,-100.00,WSW,245,14.0,16.0,63,-99.99,,,0.00,,2013-02-14 03:21:00,
2013-02-13 20:31:00,26.0,15.0,-100.00,WSW,250,15.0,20.0,62,-99.99,,,0.00,,2013-02-14 03:31:00,
2013-02-13 20:42:00,26.0,15.0,-100.00,WSW,250,15.0,20.0,62,-99.99,,,0.00,,2013-02-14 03:42:00,
2013-02-13 20:51:00,26.0,15.0,-100.00,WSW,250,15.0,20.0,62,-99.99,,,0.00,,2013-02-14 03:51:00,
2013-02-13 21:11:00,25.0,14.0,-100.00,West,265,12.0,17.0,61,-99.99,,,0.00,,2013-02-14 04:11:00,
2013-02-13 21:21:00,25.0,14.0,-100.00,West,265,12.0,17.0,61,-99.99,,,0.00,,2013-02-14 04:21:00,
2013-02-13 22:01:00,25.0,15.0,-100.00,WSW,240,12.0,18.0,64,-99.99,,,0.00,,2013-02-14 05:01:00,
2013-02-13 22:11:00,26.0,15.0,-100.00,WSW,240,14.0,16.0,62,-99.99,,,0.00,,2013-02-14 05:11:00,
2013-02-13 22:21:00,26.0,15.0,-100.00,WSW,240,14.0,16.0,62,-99.99,,,0.00,,2013-02-14 05:21:00,
2013-02-13 22:31:00,25.0,15.0,-100.00,WSW,240,12.0,18.0,64,-99.99,,,0.00,,2013-02-14 05:31:00,
2013-02-13 22:41:00,25.0,15.0,-100.00,WSW,240,12.0,18.0,64,-99.99,,,0.00,,2013-02-14 05:41:00,
2013-02-13 22:52:00,25.0,15.0,-100.00,WSW,240,12.0,18.0,64,-99.99,,,0.00,,2013-02-14 05:52:00,
2013-02-13 23:01:00,25.0,16.0,-100.00,WSW,245,14.0,17.0,67,-99.99,,,0.00,,2013-02-14 06:01:00,
2013-02-13 23:11:00,25.0,15.0,-100.00,WSW,240,14.0,18.0,64,-99.99,,,0.00,,2013-02-14 06:11:00,
2013-02-13 23:21:00,25.0,15.0,-100.00,WSW,240,14.0,18.0,64,-99.99,,,0.00,,2013-02-14 06:21:00,
2013-02-13 23:31:00,25.0,16.0,-100.00,WSW,245,14.0,17.0,67,-99.99,,,0.00,,2013-02-14 06:31:00,
2013-02-13 23:41:00,25.0,16.0,-100.00,WSW,245,14.0,17.0,67,-99.99,,,0.00,,2013-02-14 06:41:00,
2013-02-13 23:51:00,25.0,16.0,-100.00,WSW,245,14.0,17.0,67,-99.99,,,0.00,,2013-02-14 06:51:00,